Hourly Data Report for October 17, 2020

SAINT JOHN A
NEW BRUNSWICK
Current Station Operator: NAVCAN

45°18'58.000" N
65°53'24.000" W
108.80 m
8104901
71609
YSJ

Download Data

Hourly Data (October 2020)
Hourly Data Report for October 17, 2020
TIME
LST
Temp Definition
°C
Dew Point Definition
°C
Rel Hum Definition
%
Precip. Amount Definition
mm

Wind Dir Definition
10's deg

Wind Spd Definition
km/h
Visibility Definition
km
Stn Press Definition
kPa
Hmdx Definition


Wind Chill Definition


Weather Definition


00:00 11.9 10.7 92 LegendMM 12 19 24.1 100.88     LegendNANA
01:00 11.8 10.9 94 LegendMM 13 21 24.1 100.85     LegendNANA
02:00 11.3 10.8 97 LegendMM 11 18 24.1 100.80     Mostly Cloudy
03:00 11.4 10.9 97 LegendMM 11 19 24.1 100.74     LegendNANA
04:00 11.6 11.2 97 LegendMM 13 22 24.1 100.70     LegendNANA
05:00 12.1 11.6 97 LegendMM 12 16 24.1 100.73     Mostly Cloudy
06:00 12.0 11.6 97 LegendMM 10 16 16.1 100.65     LegendNANA
07:00 12.1 11.9 99 LegendMM 11 19 9.7 100.57     Fog
08:00 12.4 12.2 99 LegendMM 11 27 9.7 100.51     Fog
09:00 12.7 12.2 97 LegendMM 11 25 4.8 100.45     Rain, Fog
10:00 12.7 12.6 99 LegendMM 12 27 4.8 100.30     Rain Showers, Fog
11:00 12.5 12.4 99 LegendMM 10 26 3.2 100.17     Heavy Rain Showers, Fog
12:00 12.9 12.7 99 LegendMM 10 35 9.7 100.01     Rain Showers, Fog
13:00 13.7 13.6 99 LegendMM 11 32 4.8 99.80     Rain Showers, Fog
14:00 15.5 15.2 98 LegendMM 13 25 4.8 99.67     Moderate Rain Showers, Fog
15:00 15.9 15.8 100 LegendMM 13 21 4.8 99.53     Rain Showers, Fog
16:00 11.4 10.9 97 LegendMM 20 46 6.4 99.72     Rain Showers, Fog
17:00 8.9 8.2 95 LegendMM 23 36 16.1 99.99     Cloudy
18:00 6.4 5.1 91 LegendMM 26 21 16.1 100.31     LegendNANA
19:00 5.5 3.1 85 LegendMM 29 27 16.1 100.57     LegendNANA
20:00 5.6 3.1 84 LegendMM 27 21 24.1 100.80     Cloudy
21:00 5.3 2.7 83 LegendMM 28 25 24.1 101.01     LegendNANA
22:00 4.7 1.9 82 LegendMM 30 16 24.1 101.13     LegendNANA
23:00 4.0 1.3 82 LegendMM 32 19 24.1 101.13     Mainly Clear

Notes on Data Quality.

Legend

  • E = Estimated
  • M = Missing
  • NA = Not Available*
  • [empty] = Indicates an unobserved value
Date modified: